sat.trackr.live / text

‹ back to catalog

STARLINK-2728

NORAD 48478 · 2021-040BC

PAYLOAD ACTIVE UNKNOWN

§ Identity

Operator
Country
US
Launch date
2021-05-09
Launch site
AFETR
Launch vehicle
Mass (kg)
RCS (m²)

Purposes: comms

External: N2YO · Heavens-Above · Gunter

§ Orbital elements

Epoch: 2026-09-14T19:37:10.592544Z

Period
94.01 min
Inclination
53.1594°
Eccentricity
0.0001250
Mean motion
15.31695637 rev/d
Perigee alt
469.9 km
Apogee alt
471.6 km
Semi-major
6,848.9 km
B*
1.6682e-5
RAAN
30.9789°
Arg perigee
84.5032°
Mean anomaly
275.6112°
Rev number
29,547

§ Raw data

STARLINK-27281 48478U 21040BC  26257.81748371  .00000153  00000+0  16682-4 0  99942 48478  53.1594  30.9789 0001250  84.5032 275.6112 15.31695637295473

JSON: /api/v1/satellites/48478 · /tle

For live sub-satellite position, see the globe view (requires WebGL).

§ Visibility from observer

Set your observer location to see the next 7 days of passes ≥ 10°. The values pass through the URL so the page stays shareable.

No JS? Fill the form by hand. The geolocation button needs JavaScript.